User: anonymous
Location: Vale
(35.4830°N, 81.3830°W)
Time: 17:53:09
(UTC-04:00)
Language:

Oscar 11 - Orbit

View from above orbital plane
View from above orbital plane
View from above satellite
View from above satellite

Ground track
Ground track

The orbit data is extracted from the following two-line orbital elements,

1 14781U 84021B   14261.76733066  .00000810  00000-0  10930-3 0  6002
2 14781 097.8425 320.0262 0007870 227.9649 132.0894 14.81739547641821
Epoch (UTC): 18 September 2014 18:24:57
Eccentricity: 0.0007870
inclination: 97.8425°
perigee height: 618 km
apogee height: 629 km
right ascension of ascending node: 320.0262°
argument of perigee: 227.9649°
revolutions per day: 14.81739547
mean anomaly at epoch: 132.0894°
orbit number at epoch: 64182

The dashed part of the orbit path shows where the satellite is in the earth's shadow,  

DLR